TimeCST,TemperatureF,Dew PointF,Humidity,Sea Level PressureIn,VisibilityMPH,Wind Direction,Wind SpeedMPH,Gust SpeedMPH,PrecipitationIn,Events,Conditions,WindDirDegrees,DateUTC
12:15 AM,32.0,30.2,93,30.04,10.0,Calm,Calm,-,N/A,,Clear,0,2013-11-03 05:15:00
12:35 AM,30.2,28.4,93,30.04,10.0,Calm,Calm,-,N/A,,Clear,0,2013-11-03 05:35:00
12:55 AM,30.2,28.4,93,30.03,10.0,Calm,Calm,-,N/A,,Clear,0,2013-11-03 05:55:00
1:15 AM,32.0,30.2,93,30.03,10.0,Calm,Calm,-,N/A,,Clear,0,2013-11-03 06:15:00
1:35 AM,33.8,30.2,87,30.03,10.0,SSE,4.6,-,N/A,,Clear,160,2013-11-03 06:35:00
1:55 AM,35.6,30.2,81,30.04,10.0,South,3.5,-,N/A,,Clear,190,2013-11-03 06:55:00
1:15 AM,37.4,32.0,81,30.03,10.0,SSE,6.9,-,N/A,,Clear,150,2013-11-03 07:15:00
1:35 AM,39.2,32.0,75,30.02,10.0,SSE,8.1,-,N/A,,Clear,160,2013-11-03 07:35:00
1:55 AM,39.2,32.0,75,30.02,10.0,SSE,6.9,-,N/A,,Clear,150,2013-11-03 07:55:00
2:15 AM,39.2,32.0,75,30.01,10.0,SE,9.2,-,N/A,,Clear,140,2013-11-03 08:15:00
2:35 AM,39.2,32.0,75,30.00,10.0,South,9.2,-,N/A,,Clear,180,2013-11-03 08:35:00
2:55 AM,39.2,32.0,75,30.00,10.0,South,9.2,-,N/A,,Clear,170,2013-11-03 08:55:00
3:15 AM,39.2,32.0,75,30.00,10.0,SSE,6.9,13.8,N/A,,Clear,160,2013-11-03 09:15:00
3:35 AM,37.4,32.0,81,29.99,10.0,South,6.9,-,N/A,,Clear,170,2013-11-03 09:35:00
3:55 AM,37.4,32.0,81,29.98,10.0,South,9.2,-,N/A,,Clear,170,2013-11-03 09:55:00
4:15 AM,37.4,32.0,81,29.97,10.0,South,8.1,-,N/A,,Clear,170,2013-11-03 10:15:00
4:35 AM,39.2,32.0,75,29.97,10.0,SSE,10.4,-,N/A,,Clear,150,2013-11-03 10:35:00
4:55 AM,39.2,32.0,75,29.96,10.0,SSE,11.5,-,N/A,,Clear,150,2013-11-03 10:55:00
5:15 AM,39.2,32.0,75,29.96,10.0,SSE,10.4,-,N/A,,Clear,160,2013-11-03 11:15:00
5:35 AM,39.2,32.0,75,29.95,10.0,SSE,10.4,16.1,N/A,,Clear,150,2013-11-03 11:35:00
5:55 AM,39.2,32.0,75,29.94,10.0,SE,10.4,16.1,N/A,,Clear,140,2013-11-03 11:55:00
6:15 AM,39.2,32.0,75,29.93,10.0,SSE,12.7,-,N/A,,Clear,150,2013-11-03 12:15:00
6:35 AM,39.2,32.0,75,29.92,10.0,SSE,15.0,-,N/A,,Clear,150,2013-11-03 12:35:00
6:55 AM,39.2,32.0,75,29.92,10.0,SE,8.1,15.0,N/A,,Clear,140,2013-11-03 12:55:00
7:15 AM,39.2,32.0,75,29.92,10.0,SSE,12.7,-,N/A,,Clear,150,2013-11-03 13:15:00
7:35 AM,41.0,32.0,70,29.92,10.0,SSE,11.5,-,N/A,,Clear,150,2013-11-03 13:35:00
7:55 AM,42.8,32.0,66,29.91,10.0,SSE,15.0,-,N/A,,Clear,160,2013-11-03 13:55:00
8:15 AM,44.6,32.0,61,29.91,10.0,SSE,13.8,24.2,N/A,,Clear,150,2013-11-03 14:15:00
8:35 AM,44.6,32.0,61,29.91,10.0,SSE,15.0,23.0,N/A,,Clear,150,2013-11-03 14:35:00
8:55 AM,46.4,32.0,57,29.89,10.0,SSE,19.6,28.8,N/A,,Clear,150,2013-11-03 14:55:00
9:15 AM,48.2,30.2,50,29.87,10.0,SSE,18.4,28.8,N/A,,Clear,160,2013-11-03 15:15:00
9:35 AM,50.0,30.2,47,29.86,10.0,SSE,20.7,34.5,N/A,,Clear,160,2013-11-03 15:35:00
9:55 AM,51.8,30.2,44,29.84,10.0,SSE,21.9,33.4,N/A,,Clear,160,2013-11-03 15:55:00
10:15 AM,51.8,28.4,41,29.82,10.0,SSE,25.3,35.7,N/A,,Clear,160,2013-11-03 16:15:00
10:35 AM,53.6,28.4,38,29.81,10.0,SSE,27.6,36.8,N/A,,Clear,160,2013-11-03 16:35:00
10:55 AM,55.4,28.4,36,29.80,10.0,South,27.6,42.6,N/A,,Clear,180,2013-11-03 16:55:00
11:15 AM,55.4,28.4,36,29.81,10.0,South,27.6,40.3,N/A,,Clear,170,2013-11-03 17:15:00
11:35 AM,55.4,30.2,38,29.79,10.0,South,32.2,46.0,N/A,,Clear,170,2013-11-03 17:35:00
11:55 AM,57.2,30.2,36,29.77,10.0,South,38.0,49.5,N/A,,Clear,180,2013-11-03 17:55:00
12:15 PM,55.4,30.2,38,29.76,10.0,South,32.2,43.7,N/A,,Clear,170,2013-11-03 18:15:00
12:35 PM,55.4,32.0,41,29.76,10.0,South,31.1,41.4,N/A,,Clear,170,2013-11-03 18:35:00
12:55 PM,57.2,32.0,38,29.75,10.0,South,34.5,43.7,N/A,,Clear,170,2013-11-03 18:55:00
1:15 PM,57.2,32.0,38,29.75,10.0,South,26.5,41.4,N/A,,Clear,180,2013-11-03 19:15:00
1:35 PM,55.4,32.0,41,29.74,10.0,South,20.7,39.1,N/A,,Clear,170,2013-11-03 19:35:00
1:55 PM,57.2,32.0,38,29.74,10.0,South,28.8,41.4,N/A,,Clear,170,2013-11-03 19:55:00
2:15 PM,57.2,33.8,41,29.73,10.0,South,21.9,41.4,N/A,,Clear,170,2013-11-03 20:15:00
2:35 PM,57.2,33.8,41,29.72,10.0,South,27.6,35.7,N/A,,Clear,170,2013-11-03 20:35:00
2:55 PM,57.2,33.8,41,29.72,10.0,South,24.2,32.2,N/A,,Clear,170,2013-11-03 20:55:00
3:15 PM,57.2,33.8,41,29.72,10.0,South,23.0,35.7,N/A,,Clear,170,2013-11-03 21:15:00
3:35 PM,55.4,33.8,44,29.71,10.0,South,24.2,32.2,N/A,,Clear,170,2013-11-03 21:35:00
3:55 PM,55.4,33.8,44,29.70,10.0,South,24.2,34.5,N/A,,Clear,170,2013-11-03 21:55:00
4:15 PM,55.4,33.8,44,29.70,10.0,South,18.4,31.1,N/A,,Clear,170,2013-11-03 22:15:00
4:35 PM,55.4,33.8,44,29.70,10.0,South,18.4,29.9,N/A,,Clear,170,2013-11-03 22:35:00
4:55 PM,55.4,33.8,44,29.71,10.0,SSE,16.1,24.2,N/A,,Clear,160,2013-11-03 22:55:00
5:15 PM,55.4,33.8,44,29.71,10.0,South,23.0,34.5,N/A,,Clear,170,2013-11-03 23:15:00
5:35 PM,55.4,33.8,44,29.72,10.0,South,25.3,31.1,N/A,,Clear,170,2013-11-03 23:35:00
5:55 PM,53.6,33.8,47,29.72,10.0,South,20.7,27.6,N/A,,Clear,170,2013-11-03 23:55:00
6:15 PM,53.6,33.8,47,29.73,10.0,SSE,15.0,24.2,N/A,,Clear,160,2013-11-04 00:15:00
6:35 PM,51.8,33.8,50,29.74,10.0,SSE,15.0,23.0,N/A,,Clear,160,2013-11-04 00:35:00
6:55 PM,51.8,35.6,54,29.73,10.0,SSE,16.1,23.0,N/A,,Clear,160,2013-11-04 00:55:00
7:15 PM,51.8,35.6,54,29.73,10.0,SSE,13.8,20.7,N/A,,Clear,150,2013-11-04 01:15:00
7:35 PM,51.8,35.6,54,29.74,10.0,SSE,16.1,23.0,N/A,,Clear,160,2013-11-04 01:35:00
7:55 PM,51.8,35.6,54,29.73,10.0,SSE,12.7,21.9,N/A,,Clear,150,2013-11-04 01:55:00
8:15 PM,51.8,35.6,54,29.73,10.0,SSE,16.1,23.0,N/A,,Clear,160,2013-11-04 02:15:00
8:35 PM,51.8,35.6,54,29.73,10.0,SSE,19.6,27.6,N/A,,Clear,160,2013-11-04 02:35:00
8:55 PM,51.8,35.6,54,29.72,10.0,SSE,19.6,28.8,N/A,,Clear,160,2013-11-04 02:55:00
9:15 PM,51.8,35.6,54,29.73,10.0,SSE,18.4,31.1,N/A,,Clear,160,2013-11-04 03:15:00
9:35 PM,51.8,35.6,54,29.74,10.0,South,18.4,31.1,N/A,,Clear,170,2013-11-04 03:35:00
9:55 PM,51.8,35.6,54,29.74,10.0,South,19.6,27.6,N/A,,Clear,170,2013-11-04 03:55:00
10:15 PM,51.8,35.6,54,29.74,10.0,South,18.4,32.2,N/A,,Clear,170,2013-11-04 04:15:00
10:35 PM,51.8,37.4,58,29.74,10.0,South,19.6,27.6,N/A,,Clear,170,2013-11-04 04:35:00
10:55 PM,51.8,37.4,58,29.74,10.0,South,17.3,27.6,N/A,,Clear,170,2013-11-04 04:55:00